Temperature
21 20 20 21 26 29 29 29 29 28 28 27 26 26 26 26 25 24 21 20 20 20 20 19 19 19 19 19 19 19 19 19 19 18 18 19 19 19 18 18 18 18 18 18 18 18 18 18 18
20 21 21 25 29 29 28 29 28 28 27 26 26 26 26 25 23 22 20 20 20 20 20 19 19 19 19 19 19 19 19 19 19 19 18 18 19 18 18 18 18 18 18 18 18 18 18 18 18
21 21 24 29 29 29 28 28 28 28 26 26 26 25 25 23 22 21 20 20 20 20 19 19 19 19 19 19 19 19 19 19 19 18 18 18 18 18 18 18 18 18 18 18 18 18 18 18 18
21 23 26 29 29 29 29 29 28 28 27 26 26 26 23 21 21 21 20 20 20 20 19 19 19 19 19 19 19 19 19 19 18 18 18 18 18 18 18 18 18 18 18 18 18 18 18 18 18
23 27 30 30 29 29 29 29 28 29 28 26 26 26 23 21 21 20 20 20 20 20 19 19 19 19 19 19 19 19 19 19 18 18 18 18 18 18 18 18 18 18 18 18 18 18 18 18 18
27 30 30 29 29 29 29 28 29 28 27 26 26 25 23 21 20 20 20 20 20 20 19 19 19 19 19 19 19 18 18 18 18 18 18 18 18 18 18 18 18 18 18 18 18 18 18 18 18
28 30 30 30 29 29 29 28 29 28 27 27 26 26 23 21 21 20 20 20 20 19 19 19 19 19 19 19 19 18 18 18 18 18 18 18 18 18 18 18 18 18 18 18 18 18 18 18 18
27 31 31 31 30 29 29 28 28 28 27 25 25 26 24 21 20 20 20 20 19 19 19 19 18 18 18 18 18 18 18 18 18 18 18 18 18 18 18 18 18 18 18 18 18 18 18 18 18
27 31 30 30 30 30 29 29 27 27 26 25 25 24 23 21 20 20 20 20 19 19 19 19 19 18 18 18 18 18 18 18 18 18 18 18 17 17 17 18 18 18 18 18 18 18 18 18 18
29 30 30 30 31 30 29 29 28 27 26 25 24 23 22 21 21 21 20 20 19 19 19 19 18 18 18 18 18 18 18 18 18 18 18 17 17 17 17 18 18 18 18 18 18 18 18 18 17
30 30 30 30 30 30 29 29 28 28 28 26 24 23 22 21 21 21 20 20 19 19 19 19 18 18 18 18 18 18 18 18 18 18 18 18 17 17 17 18 18 18 18 17 17 17 17 17 17
30 30 30 30 29 29 29 29 28 28 27 25 24 23 22 21 21 21 20 20 19 19 18 18 18 18 18 18 18 18 18 18 18 17 18 17 17 17 17 17 17 17 17 17 17 17 17 17 17
30 30 30 29 29 29 28 28 28 26 25 25 24 23 22 22 21 21 20 20 19 19 18 18 18 18 18 18 18 18 18 18 18 17 17 18 17 17 17 17 17 17 17 17 17 17 17 17 17
30 30 30 29 29 29 29 28 28 26 25 24 23 23 23 22 21 21 20 19 19 19 18 18 18 18 18 18 18 18 17 18 18 17 17 18 17 17 17 17 17 17 17 17 17 17 17 17 17
30 31 31 30 30 29 29 29 28 26 25 24 24 23 22 22 21 20 20 19 19 19 18 18 18 18 18 18 18 18 17 17 17 17 17 18 17 17 17 17 17 17 17 17 17 17 17 17 17
31 31 31 31 30 30 30 29 28 26 25 25 24 23 22 21 21 20 20 19 19 19 18 18 18 18 18 18 18 18 18 17 17 17 17 18 18 18 17 17 17 17 17 17 17 17 17 17 17
31 31 31 31 31 30 30 29 28 26 26 25 24 23 22 22 21 20 20 20 19 19 19 18 18 18 18 18 18 18 18 18 18 17 17 18 17 17 17 17 17 17 17 17 17 17 17 17 17
31 31 31 30 31 31 30 30 29 27 27 26 25 24 23 22 21 21 20 20 19 19 19 19 18 18 18 18 18 18 18 18 18 17 17 18 17 17 17 17 17 17 17 17 17 17 17 17 17
31 31 30 30 31 30 30 29 29 27 27 26 26 25 24 23 22 21 20 20 19 19 19 19 18 18 18 18 18 18 18 17 17 17 17 18 17 17 17 17 17 17 17 17 17 17 17 17 17
31 30 30 30 30 30 30 29 29 28 27 26 26 25 24 23 22 21 20 20 19 19 19 19 19 18 18 18 18 18 18 17 17 17 17 18 17 17 17 17 17 17 17 17 17 17 17 17 17
31 31 31 30 30 30 30 30 29 28 27 26 26 25 24 23 23 21 21 20 20 19 19 19 18 18 18 18 18 17 18 18 18 17 17 18 18 17 17 17 17 17 17 17 17 17 17 17 17
30 31 30 30 30 30 30 30 29 29 28 27 26 25 25 23 23 22 21 20 20 20 19 18 18 18 18 18 18 17 17 17 18 17 17 17 17 17 17 18 17 17 17 17 17 17 17 17 17
30 30 30 30 30 30 30 30 30 29 28 28 27 25 25 24 23 22 21 20 20 20 19 19 18 18 18 18 18 18 17 17 18 18 18 17 17 17 17 17 18 18 17 17 17 17 17 17 17
30 30 30 30 31 29 30 29 29 29 28 28 27 25 24 24 23 22 21 20 20 20 19 19 18 18 18 18 18 18 18 18 18 18 18 17 17 17 17 17 18 17 17 17 17 17 17 17 17
30 30 29 29 29 29 30 29 29 29 29 28 27 25 24 23 22 22 21 20 20 19 19 19 19 19 18 18 18 18 18 18 18 18 17 17 17 17 17 17 17 17 17 17 17 17 17 17 17
30 30 29 29 29 30 29 29 29 29 28 27 26 25 24 23 22 21 21 20 20 19 19 19 18 18 18 18 18 18 18 18 17 18 17 17 17 17 17 17 17 17 17 17 17 17 17 17 17
30 30 31 30 30 29 30 30 29 29 28 27 26 25 24 23 22 21 21 20 19 19 19 19 18 18 18 18 18 18 18 18 18 17 17 17 17 17 17 17 17 17 17 17 17 17 17 17 17
30 30 30 30 28 28 29 29 29 28 28 27 26 25 24 23 22 21 20 20 19 19 19 18 18 18 18 18 18 17 17 17 17 17 17 17 17 17 17 17 17 17 17 17 17 16 16 16 17
29 30 30 30 29 29 28 29 30 29 28 28 27 25 24 23 22 21 20 19 19 19 19 18 18 18 18 18 18 17 17 17 17 17 17 17 17 16 17 16 16 16 16 16 16 16 16 16 16
30 30 30 29 28 29 29 29 29 29 28 27 26 25 23 22 22 21 20 19 19 19 18 18 18 18 18 18 17 17 17 17 17 16 16 16 16 16 16 16 16 16 16 16 16 16 16 16 16
Wind_Speed
10 8 5 4 3 4 11 10 8 7 7 7 6 5 7 8 7 5 5 5 5 6 8 11 10 11 11 12 11 12 12 13 12 13 13 14 14 14 14 14 14 14 14 13 13 12 12 11 11
6 5 5 3 2 9 11 10 9 9 7 5 5 5 6 8 7 5 5 5 5 7 8 10 11 10 11 11 11 12 12 12 11 11 11 12 12 13 13 13 13 13 13 13 12 11 11 11 11
5 5 3 1 8 10 10 9 8 8 6 4 4 5 5 6 5 4 5 6 6 7 9 11 11 10 10 10 10 11 11 11 10 10 10 11 11 12 12 12 12 11 12 12 12 11 10 10 10
4 4 2 4 11 11 8 7 5 5 5 5 4 6 6 6 4 5 7 6 7 8 9 12 10 9 9 10 10 10 10 10 9 9 9 9 9 10 11 11 11 11 11 11 11 10 10 10 9
5 2 2 9 12 9 8 7 5 6 5 5 5 7 7 6 7 8 7 7 7 7 9 11 11 9 9 9 9 9 9 9 8 8 8 9 9 9 9 9 10 10 10 10 10 10 10 9 9
3 1 5 10 11 9 8 6 5 7 7 5 5 7 6 6 7 7 7 7 7 7 8 10 11 9 8 8 8 8 8 9 8 7 7 8 8 8 8 8 8 8 9 9 9 9 9 9 8
3 4 8 9 9 9 8 5 5 6 6 5 4 6 6 7 7 7 7 7 7 7 7 7 8 8 9 8 7 7 7 7 7 7 7 7 7 6 7 7 7 8 9 9 9 9 9 9 8
4 2 7 9 9 9 7 5 5 5 6 5 3 4 6 8 8 7 7 7 6 5 5 6 6 6 5 7 7 6 6 6 6 6 6 6 6 7 7 7 7 8 8 8 9 8 9 9 9
3 2 8 9 9 7 5 5 5 5 6 5 5 7 9 11 9 7 7 6 5 4 3 4 5 4 4 4 6 6 6 5 6 6 6 5 5 6 6 6 7 8 8 8 8 8 9 9 10
2 5 8 7 7 6 5 5 4 4 5 5 7 9 11 10 9 7 6 5 4 3 2 3 3 3 3 3 4 3 3 4 3 3 3 3 3 3 4 6 7 7 8 9 9 9 10 10 8
2 4 5 5 5 5 5 5 4 3 4 4 6 10 11 9 8 6 5 4 3 3 2 2 2 2 2 2 2 2 2 2 3 3 3 3 3 3 3 4 6 7 8 7 9 9 7 6 5
1 3 3 4 4 3 4 4 5 6 6 6 8 10 10 8 7 6 5 4 3 2 2 2 2 2 1 1 1 2 2 2 2 2 2 2 1 1 1 2 3 4 4 4 4 4 5 5 5
1 2 3 4 4 4 4 5 5 7 7 8 9 9 9 7 6 5 4 3 3 3 2 2 1 1 1 1 0 1 1 1 2 1 1 1 1 1 1 1 1 2 3 3 3 4 4 4 5
2 2 2 3 4 3 4 5 5 6 8 9 9 8 7 6 5 5 4 3 3 3 2 2 2 1 1 1 0 0 1 1 1 1 1 0 0 0 1 1 1 2 2 3 3 3 3 4 4
2 2 2 2 2 2 1 4 5 7 8 8 8 7 6 5 5 4 4 3 3 3 2 1 2 1 1 0 0 1 1 1 1 1 1 0 1 1 1 1 2 1 3 3 3 3 3 3 4
5 4 2 2 1 1 3 4 6 7 7 7 7 6 5 4 4 4 4 3 2 2 2 1 1 1 1 1 0 0 0 0 0 0 1 1 1 1 2 1 1 1 2 2 3 3 2 2 2
5 3 1 1 1 1 2 2 5 6 6 6 6 6 5 4 3 3 4 4 3 2 2 1 0 0 1 1 1 1 1 1 0 0 0 0 1 2 2 2 1 2 2 2 2 2 2 2 2
2 2 2 2 1 2 2 1 4 5 5 5 5 5 5 4 4 4 4 4 3 3 2 1 1 0 0 1 1 1 1 1 1 1 1 1 1 1 2 2 2 2 2 2 1 1 1 1 1
4 4 3 2 1 2 2 1 3 5 5 4 5 5 5 4 4 4 4 5 4 4 3 2 1 1 1 1 1 1 1 0 1 0 1 1 1 1 1 1 2 2 2 2 2 2 2 2 1
5 5 3 1 0 2 2 1 2 4 5 4 4 5 5 4 5 5 4 5 5 5 4 4 3 2 2 1 1 1 0 0 1 1 1 1 1 1 1 1 2 2 2 3 2 2 2 2 2
5 5 4 3 2 3 4 3 4 4 4 4 4 4 5 4 5 6 5 5 5 5 4 4 4 3 2 2 1 1 1 1 0 0 1 1 1 1 1 1 2 2 3 3 3 3 3 2 2
5 3 4 5 6 3 4 3 3 4 4 3 4 5 5 5 5 5 5 5 4 4 4 4 3 3 3 3 2 2 1 1 0 0 1 1 1 1 1 1 1 2 2 2 3 3 3 3 3
4 2 4 6 6 6 4 5 1 3 1 2 3 4 5 5 5 5 4 4 4 3 3 3 3 3 3 3 2 2 1 1 0 0 1 1 1 1 1 2 1 1 2 2 3 2 3 3 3
3 4 4 6 7 6 2 5 1 1 1 1 3 4 4 5 5 4 4 4 3 3 3 3 3 3 3 3 2 2 1 1 1 1 1 1 1 1 1 1 1 2 1 1 2 2 3 3 2
7 6 4 5 5 2 2 4 1 2 1 1 2 3 4 4 5 4 4 4 3 3 3 3 4 3 3 3 2 2 2 1 1 1 0 1 1 1 1 1 1 1 1 1 1 1 2 2 3
5 7 6 5 4 2 3 3 1 3 2 2 3 4 4 4 4 4 4 4 4 4 4 3 4 4 4 3 3 2 1 1 1 0 1 1 1 1 2 1 1 1 1 0 0 1 1 1 2
5 6 6 7 6 6 2 1 2 2 3 3 4 4 4 4 4 4 3 4 4 3 4 3 4 4 4 4 3 2 2 1 1 0 1 1 1 1 1 1 1 1 0 0 1 1 1 1 2
4 4 5 6 5 6 4 3 1 2 2 3 3 3 4 4 4 4 4 3 3 3 3 3 4 4 4 4 3 2 2 2 1 1 1 1 1 2 1 1 0 0 0 1 1 1 1 1 1
5 6 5 5 6 7 6 1 3 2 1 3 4 4 4 4 4 4 4 4 4 3 4 4 4 3 3 3 2 2 1 1 1 1 1 1 1 1 1 1 1 1 1 1 1 1 1 1 1
7 7 7 7 6 7 7 2 5 3 1 1 3 4 4 4 4 4 5 4 4 4 3 3 3 3 3 3 3 2 2 1 1 1 1 1 1 1 1 1 1 1 1 1 1 2 2 2 2
Wind_Direction
179 184 211 237 229 82 64 57 53 54 57 53 49 43 41 36 24 61 81 87 90 102 114 126 122 124 126 125 126 126 124 128 130 134 137 141 143 144 145 147 148 148 149 148 146 142 145 146 145
177 189 228 243 33 69 63 52 52 52 66 74 61 48 49 55 48 80 94 95 101 105 112 113 117 119 122 122 126 127 128 129 128 130 136 142 144 146 146 147 148 151 153 151 148 147 147 146 147
189 228 266 32 53 54 56 49 56 71 69 53 56 46 41 49 61 81 96 111 110 106 110 112 118 117 118 121 121 124 127 130 131 133 137 143 146 149 149 149 148 150 154 152 152 153 153 150 148
223 229 230 65 62 55 52 53 61 80 72 54 62 70 70 53 56 88 108 112 110 112 113 110 114 113 115 119 120 121 126 129 134 138 138 141 145 149 151 151 151 151 152 155 156 159 160 158 155
249 269 92 72 65 59 55 52 55 58 62 64 66 77 75 69 84 105 115 112 107 104 108 111 111 111 113 114 119 124 127 131 135 134 138 141 146 148 149 150 152 153 153 157 159 161 162 160 160
263 289 58 63 65 63 59 52 58 63 70 75 78 81 77 90 101 111 111 103 97 98 104 110 119 119 115 114 117 124 130 136 141 139 139 142 144 148 151 154 156 156 154 159 165 166 166 164 166
324 35 56 62 64 63 52 45 47 61 66 63 71 81 95 102 103 109 107 102 96 95 100 107 117 124 127 124 122 121 128 135 142 142 140 143 145 152 153 158 161 165 165 169 172 173 172 171 174
308 12 63 62 57 59 56 55 49 54 66 74 65 79 100 117 119 112 107 101 95 88 98 109 112 116 128 127 127 129 128 132 144 147 144 146 157 165 168 171 167 166 167 175 178 174 174 176 181
277 44 55 46 44 52 57 64 65 65 88 81 63 73 108 124 127 124 117 113 102 92 98 111 113 114 120 124 128 140 145 147 160 159 163 177 171 167 172 161 167 172 175 181 179 177 181 186 188
306 49 49 35 30 43 52 52 72 90 91 90 94 102 119 131 135 134 129 128 123 119 114 108 108 105 115 120 125 135 138 135 147 143 161 167 157 164 165 158 176 178 182 187 183 187 192 204 196
30 38 32 33 28 40 58 57 56 68 69 93 126 130 134 138 140 137 130 130 127 136 123 105 103 103 107 110 124 127 132 128 140 143 159 162 177 173 173 172 173 178 187 189 180 191 196 197 194
70 36 13 25 19 36 52 66 62 48 52 84 123 132 137 142 141 138 135 139 137 144 133 116 101 91 85 90 122 134 133 136 133 136 161 156 165 173 156 174 165 176 174 171 182 184 193 199 199
102 49 44 53 56 64 74 75 74 69 81 102 119 129 137 141 139 133 132 133 135 147 144 130 113 90 98 95 279 125 125 135 129 123 143 172 173 172 140 156 170 182 170 174 190 192 193 203 205
68 78 73 74 79 81 79 81 90 94 110 118 127 132 137 139 141 136 134 129 139 146 143 134 143 142 134 140 160 192 162 153 152 143 114 189 228 153 190 185 198 198 188 188 196 194 200 210 214
177 186 153 107 93 106 104 86 86 114 129 130 132 132 134 140 148 152 150 147 144 146 143 137 155 143 147 170 207 194 180 162 162 147 145 205 269 299 272 218 213 205 183 187 193 197 201 209 216
225 235 213 97 89 193 273 60 99 133 142 140 140 138 142 148 158 165 165 165 159 155 157 178 140 141 161 167 268 219 159 102 145 189 166 194 262 255 252 225 213 197 198 195 191 203 200 211 229
228 255 329 82 115 241 279 60 117 149 154 152 156 152 154 153 164 172 179 180 173 172 176 191 200 187 206 187 183 148 87 37 0 24 337 308 262 237 236 224 207 214 205 207 210 183 210 221 234
276 296 306 319 14 266 278 86 133 163 171 163 167 168 168 170 173 172 179 178 177 173 175 185 182 188 220 184 169 155 107 81 58 32 29 337 291 253 245 217 191 218 207 206 200 196 207 224 223
291 287 291 332 338 284 282 240 159 174 186 180 179 179 178 175 165 164 174 180 179 179 179 179 179 155 180 182 195 177 153 73 68 53 49 355 320 282 254 246 185 218 204 206 200 202 195 192 163
255 263 263 212 107 286 276 240 168 177 193 194 195 193 185 174 168 170 178 182 189 190 192 187 189 182 193 178 189 196 209 140 104 16 57 2 354 313 246 234 221 215 194 189 195 196 210 199 179
253 268 277 274 260 238 258 210 160 161 177 185 194 192 185 181 176 172 178 184 192 197 198 198 196 189 196 200 186 155 170 231 128 117 60 24 11 339 321 288 252 224 222 200 201 202 204 209 206
258 285 269 250 255 261 272 283 148 159 167 183 193 195 189 181 178 176 178 185 190 197 198 199 194 191 190 192 195 195 225 262 308 319 50 22 13 348 322 289 260 248 246 214 223 212 215 210 211
278 280 256 255 263 269 251 274 145 156 201 194 189 192 186 180 179 178 179 182 187 185 186 184 185 188 184 190 191 214 246 263 276 335 20 322 26 4 356 329 298 264 254 243 246 229 225 221 228
196 207 220 237 248 255 275 278 303 120 259 176 149 166 178 179 173 171 165 163 166 163 162 165 167 177 178 178 182 200 213 241 290 308 343 336 27 25 24 348 321 289 277 249 241 239 224 228 236
222 244 246 236 236 254 138 265 350 52 60 85 136 149 158 166 166 166 165 162 162 156 152 150 151 158 163 163 172 186 194 203 215 267 306 320 343 5 23 359 344 313 305 283 252 222 235 226 229
237 256 272 288 293 283 191 259 74 78 90 102 115 127 139 145 148 159 168 168 168 161 155 154 156 163 166 165 166 165 175 202 201 234 301 327 334 0 24 23 27 5 328 305 201 220 217 216 224
233 247 283 282 281 281 268 229 183 141 142 128 122 122 134 142 146 152 160 169 167 165 161 165 167 168 170 172 175 173 180 204 206 209 260 305 335 337 6 359 44 44 4 278 225 213 223 217 223
265 256 254 270 284 281 267 258 270 153 175 160 153 144 137 147 147 145 147 148 151 157 155 162 167 172 173 173 188 185 192 199 204 230 260 309 313 318 325 331 331 223 201 214 232 220 221 227 227
210 224 248 263 280 288 288 323 58 95 148 175 165 152 143 145 140 140 142 138 131 131 146 150 152 159 167 174 185 196 197 198 202 216 237 250 263 270 270 288 282 256 228 215 210 241 250 253 263
243 244 238 255 260 268 284 304 81 73 83 146 157 145 136 137 134 133 134 135 132 126 118 121 133 146 159 167 173 175 177 186 210 218 240 244 252 259 258 278 273 261 237 218 215 233 236 242 250
Height
1513 1512 1513 1514 1508 1501 1505 1503 1501 1502 1504 1508 1509 1508 1508 1510 1512 1520 1521 1519 1519 1518 1517 1516 1516 1517 1518 1519 1520 1521 1522 1523 1525 1526 1528 1529 1531 1532 1534 1536 1537 1539 1541 1543 1544 1546 1548 1549 1551
1515 1514 1515 1512 1502 1508 1509 1503 1504 1506 1509 1510 1511 1511 1511 1514 1518 1520 1520 1520 1520 1520 1520 1519 1518 1519 1520 1520 1521 1522 1523 1525 1526 1527 1529 1530 1532 1533 1535 1536 1538 1540 1541 1543 1545 1546 1548 1550 1551
1515 1515 1515 1505 1503 1509 1511 1506 1506 1509 1511 1511 1512 1513 1515 1519 1521 1521 1522 1521 1522 1522 1522 1521 1521 1521 1521 1522 1523 1524 1525 1526 1527 1529 1530 1531 1533 1534 1535 1537 1538 1540 1541 1543 1545 1547 1549 1550 1552
1516 1516 1512 1505 1507 1507 1506 1506 1507 1508 1511 1512 1513 1515 1519 1523 1523 1523 1522 1523 1523 1524 1524 1523 1522 1523 1523 1523 1524 1525 1526 1527 1529 1530 1531 1532 1533 1535 1536 1537 1539 1540 1541 1543 1545 1547 1549 1551 1552
1517 1513 1505 1504 1507 1507 1506 1508 1509 1508 1511 1513 1514 1516 1521 1524 1524 1524 1524 1525 1525 1526 1526 1525 1524 1524 1525 1525 1526 1526 1528 1529 1530 1531 1532 1533 1533 1534 1536 1537 1539 1540 1542 1544 1546 1547 1549 1551 1552
1516 1508 1505 1510 1509 1507 1508 1510 1509 1510 1512 1515 1516 1517 1523 1525 1526 1526 1526 1527 1527 1527 1527 1527 1526 1526 1526 1527 1527 1528 1529 1530 1531 1531 1532 1533 1534 1535 1535 1536 1538 1540 1541 1543 1545 1547 1549 1551 1552
1514 1505 1506 1507 1509 1508 1510 1512 1511 1512 1514 1516 1517 1518 1523 1526 1527 1528 1528 1528 1529 1529 1529 1529 1529 1528 1528 1528 1529 1529 1530 1531 1531 1532 1532 1533 1533 1534 1535 1536 1537 1539 1541 1543 1545 1547 1549 1550 1552
1515 1507 1504 1505 1509 1510 1511 1513 1514 1514 1516 1519 1519 1519 1523 1527 1528 1528 1529 1530 1530 1530 1531 1530 1530 1530 1530 1530 1530 1530 1531 1531 1532 1532 1532 1533 1533 1533 1534 1535 1536 1537 1539 1542 1544 1546 1548 1550 1551
1516 1508 1509 1508 1509 1510 1512 1513 1516 1517 1518 1520 1521 1522 1525 1527 1528 1529 1530 1531 1531 1531 1531 1532 1531 1531 1531 1532 1531 1531 1531 1532 1532 1533 1532 1533 1534 1534 1534 1534 1535 1536 1539 1541 1543 1545 1547 1549 1551
1513 1510 1511 1510 1509 1510 1512 1513 1515 1516 1519 1521 1523 1525 1526 1528 1529 1530 1530 1531 1531 1532 1532 1532 1532 1532 1532 1532 1532 1532 1533 1532 1533 1533 1533 1533 1533 1533 1533 1533 1534 1536 1538 1540 1542 1544 1546 1549 1551
1513 1511 1511 1511 1512 1512 1513 1514 1515 1515 1517 1520 1523 1525 1527 1529 1530 1531 1531 1532 1532 1532 1532 1533 1532 1532 1532 1532 1532 1533 1533 1532 1533 1533 1533 1533 1533 1533 1533 1534 1534 1536 1538 1540 1541 1544 1546 1548 1550
1514 1513 1513 1513 1514 1514 1514 1515 1516 1517 1520 1522 1524 1526 1528 1529 1531 1531 1532 1532 1531 1532 1533 1533 1533 1532 1532 1533 1533 1533 1533 1533 1534 1533 1534 1534 1533 1533 1533 1534 1535 1536 1538 1539 1541 1543 1545 1546 1548
1513 1514 1515 1515 1515 1515 1516 1516 1518 1521 1523 1524 1526 1527 1529 1530 1531 1532 1532 1531 1531 1531 1533 1533 1533 1533 1532 1532 1533 1533 1533 1534 1534 1534 1534 1534 1534 1533 1534 1534 1534 1536 1537 1538 1540 1541 1543 1544 1546
1514 1515 1515 1515 1515 1516 1516 1517 1519 1522 1524 1525 1527 1528 1530 1531 1532 1533 1533 1532 1531 1532 1533 1533 1533 1533 1533 1533 1533 1533 1534 1533 1534 1534 1534 1534 1534 1534 1534 1534 1535 1536 1537 1538 1539 1540 1541 1543 1544
1515 1513 1513 1513 1514 1516 1515 1516 1518 1522 1525 1526 1528 1529 1531 1532 1533 1533 1533 1533 1533 1533 1533 1534 1534 1533 1533 1533 1533 1534 1534 1534 1534 1535 1534 1534 1534 1534 1534 1534 1535 1536 1536 1537 1538 1539 1540 1541 1543
1511 1509 1512 1511 1513 1514 1515 1519 1520 1523 1524 1526 1528 1530 1531 1532 1533 1533 1534 1534 1534 1534 1534 1534 1534 1534 1533 1533 1533 1534 1534 1535 1535 1535 1535 1535 1534 1534 1534 1535 1535 1535 1536 1536 1537 1538 1539 1540 1541
1508 1511 1512 1512 1511 1512 1512 1516 1519 1522 1523 1525 1528 1529 1531 1532 1533 1533 1534 1534 1535 1535 1534 1534 1534 1534 1534 1534 1534 1534 1534 1534 1535 1535 1535 1535 1535 1534 1535 1535 1535 1535 1536 1536 1537 1537 1538 1538 1539
1512 1511 1512 1512 1510 1511 1511 1514 1517 1521 1522 1524 1527 1528 1530 1531 1533 1533 1534 1534 1535 1535 1534 1534 1534 1534 1534 1534 1534 1534 1534 1535 1535 1535 1535 1535 1535 1535 1535 1535 1535 1535 1535 1535 1536 1536 1537 1537 1537
1508 1511 1513 1511 1510 1510 1512 1513 1515 1519 1521 1522 1525 1527 1529 1531 1532 1533 1533 1534 1534 1534 1534 1534 1534 1534 1534 1534 1534 1534 1534 1535 1535 1535 1535 1535 1535 1535 1535 1535 1535 1535 1535 1535 1535 1536 1536 1537 1537
1509 1512 1512 1511 1510 1511 1512 1512 1513 1517 1519 1521 1523 1526 1527 1530 1531 1532 1533 1534 1534 1534 1534 1534 1534 1534 1534 1534 1533 1533 1534 1535 1535 1535 1535 1535 1535 1535 1535 1534 1534 1534 1534 1534 1534 1534 1535 1536 1537
1509 1510 1510 1512 1511 1509 1510 1512 1512 1514 1518 1520 1522 1524 1526 1528 1529 1531 1532 1533 1533 1533 1534 1534 1534 1533 1533 1533 1534 1534 1534 1535 1535 1535 1535 1535 1535 1534 1534 1534 1534 1533 1534 1534 1534 1534 1534 1535 1536
1512 1506 1508 1510 1512 1510 1511 1517 1510 1510 1515 1518 1520 1522 1524 1526 1528 1529 1531 1531 1532 1533 1533 1533 1533 1533 1533 1533 1534 1534 1534 1535 1535 1535 1535 1535 1534 1534 1534 1533 1533 1533 1533 1533 1533 1534 1534 1534 1535
1508 1507 1508 1508 1510 1511 1509 1514 1509 1508 1512 1513 1517 1520 1522 1524 1526 1528 1529 1530 1531 1532 1532 1532 1532 1532 1532 1533 1533 1534 1534 1535 1535 1535 1534 1534 1534 1533 1533 1533 1532 1532 1532 1532 1532 1533 1533 1533 1534
1507 1508 1508 1506 1506 1519 1512 1516 1514 1506 1510 1510 1514 1518 1521 1523 1525 1527 1528 1529 1530 1531 1531 1531 1530 1531 1531 1532 1533 1533 1534 1534 1534 1534 1534 1534 1534 1533 1532 1532 1532 1532 1532 1531 1531 1531 1532 1532 1532
1506 1509 1517 1520 1518 1517 1508 1513 1513 1506 1508 1511 1514 1517 1520 1522 1523 1525 1527 1528 1529 1529 1530 1530 1529 1530 1531 1531 1532 1533 1533 1533 1533 1533 1533 1533 1533 1532 1531 1531 1531 1531 1530 1530 1530 1530 1530 1531 1531
1504 1505 1519 1527 1523 1512 1510 1512 1506 1505 1509 1512 1514 1516 1519 1520 1522 1523 1525 1526 1527 1528 1528 1528 1529 1529 1530 1530 1531 1532 1532 1532 1533 1532 1533 1532 1532 1532 1531 1530 1530 1529 1529 1529 1529 1529 1529 1529 1529
1505 1503 1500 1507 1510 1515 1509 1506 1504 1505 1508 1511 1513 1516 1517 1519 1521 1522 1523 1525 1525 1526 1527 1527 1527 1528 1528 1529 1530 1530 1531 1531 1531 1531 1531 1531 1531 1531 1530 1529 1528 1528 1528 1528 1528 1528 1527 1528 1528
1502 1500 1503 1508 1524 1525 1515 1510 1506 1505 1507 1509 1512 1514 1517 1519 1520 1521 1522 1523 1524 1525 1525 1526 1526 1526 1527 1527 1528 1529 1529 1530 1530 1530 1530 1529 1529 1529 1528 1528 1527 1527 1526 1526 1526 1526 1526 1526 1526
1505 1504 1504 1505 1508 1519 1521 1513 1498 1502 1505 1507 1510 1514 1516 1518 1519 1520 1521 1522 1523 1524 1524 1525 1525 1525 1526 1526 1527 1527 1528 1528 1528 1528 1528 1528 1527 1527 1526 1526 1526 1526 1525 1525 1524 1525 1524 1524 1524
1499 1499 1502 1511 1514 1511 1511 1512 1499 1502 1504 1507 1510 1514 1516 1518 1519 1520 1521 1521 1522 1522 1523 1524 1524 1525 1525 1525 1525 1526 1526 1526 1527 1527 1526 1526 1526 1525 1525 1524 1524 1524 1524 1523 1523 1522 1522 1522 1522